Satellite: FENGYUN1
Catalog number: 25730
Epoch time:      05348.57403429
Element set:    0604
Inclination:      098.6145 deg
RA of node:       343.2213 deg
Eccentricity:    0.0014071
Arg of perigee:   310.2946 deg
Mean anomaly:     049.6998 deg
Mean motion:   14.11802840 rev/day
Decay rate:      -2.14e-06 rev/day^2
Epoch rev:           33996
Checksum:              292

Satellite: OKEAN-0
Catalog number: 25860
Epoch time:      05349.63938204
Element set:     616
Inclination:      097.7446 deg
RA of node:       007.4366 deg
Eccentricity:    0.0001401
Arg of perigee:   039.1325 deg
Mean anomaly:     321.0017 deg
Mean motion:   14.73322398 rev/day
Decay rate:       1.48e-06 rev/day^2
Epoch rev:           34472
Checksum:              281

Satellite: NOAA-16
Catalog number: 26536
Epoch time:      05348.59549169
Element set:    0657
Inclination:      099.0387 deg
RA of node:       308.3060 deg
Eccentricity:    0.0009817
Arg of perigee:   280.9343 deg
Mean anomaly:     079.0756 deg
Mean motion:   14.12299546 rev/day
Decay rate:       3.33e-06 rev/day^2
Epoch rev:           26952
Checksum:              345

Satellite: NOAA-17
Catalog number: 27453
Epoch time:      05348.55501215
Element set:    0685
Inclination:      098.6444 deg
RA of node:       059.1802 deg
Eccentricity:    0.0011071
Arg of perigee:   250.2137 deg
Mean anomaly:     109.7844 deg
Mean motion:   14.23731601 rev/day
Decay rate:        3.6e-07 rev/day^2
Epoch rev:           18050
Checksum:              277

Satellite: NOAA-18
Catalog number: 28654
Epoch time:      05349.46830397
Element set:     279
Inclination:      098.7667 deg
RA of node:       291.8821 deg
Eccentricity:    0.0014813
Arg of perigee:   024.5266 deg
Mean anomaly:     335.6609 deg
Mean motion:   14.10913083 rev/day
Decay rate:       3.68e-06 rev/day^2
Epoch rev:            2947
Checksum:              340

/EX
SB KEPS @ AMSAT  $ORB05349.M
Orbital Elements  05349.MISC

HR AMSAT ORBITAL ELEMENTS FOR MANNED AND MISCELLANEOUS SATELLITES
FROM WA5QGD FORT WORTH,TX December 15, 2005
Send SUBSCRIBE KEPS/UNSUBSCRIBE KEPS to majordomo@amsat.org only
BID: ORB05349.M
TO ALL RADIO AMATEURS BT

Satellite: HUBBLE
Catalog number: 20580
Epoch time:      05348.85630532
Element set:    0494
Inclination:      028.4654 deg
RA of node:       171.4078 deg
Eccentricity:    0.0003353
Arg of perigee:   030.1340 deg
Mean anomaly:     329.9437 deg
Mean motion:   14.99920703 rev/day
Decay rate:       6.51e-06 rev/day^2
Epoch rev:           65739
Checksum:              298

Satellite: UARS
Catalog number: 21701
Epoch time:      05349.46208921
Element set:     636
Inclination:      056.9781 deg
RA of node:       162.9710 deg
Eccentricity:    0.0107190
Arg of perigee:   214.5995 deg
Mean anomaly:     144.8057 deg
Mean motion:   15.41322161 rev/day
Decay rate:      3.705e-05 rev/day^2
Epoch rev:           78095
Checksum:              301

Satellite: PO-34
Catalog number: 25520
Epoch time:      05349.82126059
Element set:     346
Inclination:      028.4569 deg
RA of node:       177.7064 deg
Eccentricity:    0.0005525
Arg of perigee:   048.2306 deg
Mean anomaly:     311.8765 deg
Mean motion:   15.16550237 rev/day
Decay rate:       8.07e-06 rev/day^2
Epoch rev:           39418
Checksum:              310

Satellite: ISS
Catalog number: 25544
Epoch time:      05349.94881944
Element set:     953
Inclination:      051.6458 deg
RA of node:       049.3426 deg
Eccentricity:    0.0010450
Arg of perigee:   045.0338 deg
Mean anomaly:     303.4528 deg
Mean motion:   15.73096643 rev/day
Decay rate:     1.3541e-04 rev/day^2
Epoch rev:           40428
Checksum:              303

Satellite: OO-38
Catalog number: 26063
Epoch time:      05348.62084842
Element set:    0500
Inclination:      100.1923 deg
RA of node:       241.4268 deg
Eccentricity:    0.0036557
Arg of perigee:   267.5026 deg
Mean anomaly:     092.1958 deg
Mean motion:   14.35746576 rev/day
Decay rate:       1.31e-06 rev/day^2
Epoch rev:           30819
Checksum:              302

Satellite: NO-45
Catalog number: 26932
Epoch time:      05348.58873241
Element set:    0195
Inclination:      067.0563 deg
RA of node:       122.8302 deg
Eccentricity:    0.0004693
Arg of perigee:   291.6494 deg
Mean anomaly:     068.4092 deg
Mean motion:   14.29510983 rev/day
Decay rate:       1.89e-06 rev/day^2
Epoch rev:           21958
Checksum:              330

/EX




----
Via the keps mailing list at AMSAT.ORG courtesy of AMSAT-NA.
To unsubscribe, send "unsubscribe keps" to Majordomo@amsat.org

--- ViaMAIL!/WC v1.60d
 * Origin: Chowdanet (401-724-4410) telnet://chowdanet.com  (1:323/120)